Location: Beutels
(47.8767°N, 9.8584°E)
Time: 09:30:19
(UTC+00:00)

Cosmos 2360 Rocket - Pass Details

Date: 19 May 2025
Orbit: 834 x 842 km, 71.0° (Epoch: 23 June)

Event Time Altitude Azimuth Distance (km) Brightness Sun altitude
Rises 21:25:53 0° 337° (NNW) 3,393 7.1 -17.7°
Reaches altitude 10° 21:28:59 10° 354° (N) 2,456 5.7 -18.0°
Maximum altitude 21:33:09 21° 42° (NE) 1,812 4.2 -18.3°
Drops below altitude 10° 21:37:18 10° 90° (E) 2,448 4.4 -18.6°
Enters shadow 21:37:57 - 94° (E) 2,628 4.5 -18.6°
